Location: Wiler
(46.4041°N, 7.7840°E)
Time: 17:46:51
(UTC+00:00)

STARLINK-1233 - Pass Details

Date: 09 April 2020
Orbit: 549 x 551 km, 53.0° (Epoch: 26 May)

Event Time Altitude Azimuth Distance (km) Brightness Sun altitude
Rises 19:47:07 0° 297° (WNW) 2,735 9.0 -16.5°
Reaches altitude 10° 19:49:28 10° 290° (WNW) 1,837 7.5 -16.8°
Maximum altitude 19:53:21 39° 221° (SW) 844 4.6 -17.4°
Enters shadow 19:55:04 26° 172° (S) 1,108 4.8 -17.6°
